FW8346 Weather Reports


Display with metric or nautical units.
time (UTC)temp
F
wind
direction
speed
MPH
gust
MPH
rain 1hr
in
rain 24hr
in
rain mn
in
humidity
%
barometer
mb
20260505013945 46 283 1.0 9.0 0.00 0.00 0.00 48 1003.8
20260505013710 46 326 4.0 12.0 0.00 0.00 0.00 47 1003.8
20260505013206 46 358 5.0 12.0 0.00 0.00 0.00 48 1003.5
20260505012428 46 314 4.0 12.0 0.00 0.00 0.00 47 1003.5
20260505011922 46 260 2.0 11.0 0.00 0.00 0.00 47 1003.4
20260505011416 46 303 1.0 5.0 0.00 0.00 0.00 48 1003.3
20260505010910 46 315 2.0 7.0 0.00 0.00 0.00 48 1003.5
20260505010404 46 335 3.0 9.0 0.00 0.00 0.00 48 1003.4
20260505005857 46 331 3.0 9.0 0.00 0.00 0.00 47 1003.3
20260505005352 46 316 2.0 9.0 0.00 0.00 0.00 47 1003.3
20260505004847 46 339 2.0 9.0 0.00 0.00 0.00 47 1003.3
20260505004347 46 243 1.0 6.0 0.00 0.00 0.00 48 1003.3
20260505003848 46 307 2.0 7.0 0.00 0.00 0.00 48 1003.2
20260505003348 46 334 4.0 10.0 0.00 0.00 0.00 48 1003.3
20260505002848 46 331 3.0 11.0 0.00 0.00 0.00 48 1003.1
20260505002350 46 349 3.0 11.0 0.00 0.00 0.00 49 1003.1
20260505001848 46 323 4.0 11.0 0.00 0.00 0.00 49 1003.2
20260505001345 46 323 5.0 14.0 0.00 0.00 0.00 48 1003.3
20260505000844 47 307 3.0 14.0 0.00 0.00 0.00 49 1003.2
20260505000345 47 240 3.0 13.0 0.00 0.00 0.00 50 1003.2
20260504235845 47 319 5.0 13.0 0.00 0.00 0.00 51 1003.1
20260504235345 46 297 6.0 15.0 0.00 0.00 0.00 51 1003.1
20260504234842 47 347 6.0 16.0 0.00 0.00 0.00 50 1003.2
20260504234344 47 324 5.0 16.0 0.00 0.00 0.00 51 1003.2
20260504234111 47 319 5.0 12.0 0.00 0.00 0.00 50 1003.1
20260504233342 47 322 5.0 14.0 0.00 0.00 0.00 49 1003.1
20260504232837 47 354 7.0 14.0 0.00 0.00 0.00 51 1003.1
20260504232337 47 322 7.0 14.0 0.00 0.00 0.00 50 1003.0
20260504232107 47 339 5.0 17.0 0.00 0.00 0.00 48 1003.0
20260504231336 47 345 5.0 17.0 0.00 0.00 0.00 49 1003.0
20260504230838 47 293 7.0 17.0 0.00 0.00 0.00 49 1002.9
20260504230336 47 220 7.0 22.0 0.00 0.00 0.00 48 1002.8
20260504225836 48 338 7.0 22.0 0.00 0.00 0.00 48 1002.7
20260504225337 48 350 7.0 16.0 0.00 0.00 0.00 49 1002.6
20260504224838 48 304 6.0 16.0 0.00 0.00 0.00 48 1002.6
20260504224332 48 338 5.0 16.0 0.00 0.00 0.00 50 1002.6
20260504223833 48 340 7.0 20.0 0.00 0.00 0.00 49 1002.5
20260504223333 48 323 7.0 20.0 0.00 0.00 0.00 49 1002.4
20260504223104 49 5 7.0 18.0 0.00 0.00 0.00 49 1002.4
20260504222333 49 49 7.0 16.0 0.00 0.00 0.00 48 1002.4
20260504221833 49 317 7.0 18.0 0.00 0.00 0.00 46 1002.3
20260504221334 49 354 8.0 19.0 0.00 0.00 0.00 47 1002.1
20260504220834 50 336 6.0 19.0 0.00 0.00 0.00 46 1002.1
20260504220334 50 296 7.0 19.0 0.00 0.00 0.00 44 1002.1
20260504215830 50 196 9.0 22.0 0.00 0.00 0.00 46 1002.0
20260504215329 51 339 6.0 22.0 0.00 0.00 0.00 46 1001.9
20260504214828 51 273 7.0 19.0 0.00 0.00 0.00 45 1001.8
20260504214329 51 0 7.0 19.0 0.00 0.00 0.00 47 1001.8
20260504213830 51 354 7.0 21.0 0.00 0.00 0.00 47 1001.9
20260504213328 50 305 9.0 21.0 0.00 0.00 0.00 47 1001.8
20260504212833 50 312 10.0 21.0 0.00 0.00 0.00 47 1001.7
20260504212828 50 333 9.0 21.0 0.00 0.00 0.00 49 1001.7
20260504212102 50 302 11.0 30.0 0.00 0.00 0.00 47 1001.7
20260504211326 51 0 7.0 30.0 0.00 0.00 0.00 47 1001.5
20260504210825 51 333 6.0 20.0 0.00 0.00 0.00 47 1001.5
20260504210325 50 281 9.0 22.0 0.00 0.00 0.00 46 1001.5
20260504205825 50 326 11.0 23.0 0.00 0.00 0.00 50 1001.4
20260504205326 51 347 11.0 23.0 0.00 0.00 0.00 51 1001.4
20260504204827 51 339 9.0 21.0 0.00 0.00 0.00 48 1001.2
20260504204557 51 240 6.0 21.0 0.00 0.00 0.00 45 1001.3
20260504203827 52 272 6.0 19.0 0.00 0.00 0.00 46 1001.2
20260504203325 52 264 8.0 20.0 0.00 0.00 0.00 45 1001.0
20260504202825 52 84 8.0 21.0 0.00 0.00 0.00 48 1000.9
20260504202322 52 317 7.0 22.0 0.00 0.00 0.00 49 1000.9
20260504201822 51 308 6.0 22.0 0.00 0.00 0.00 49 1001.0
20260504201323 51 342 6.0 21.0 0.00 0.00 0.00 47 1001.0
20260504200822 51 278 7.0 21.0 0.00 0.00 0.00 50 1000.9
20260504200322 51 340 7.0 20.0 0.00 0.00 0.00 47 1000.9
20260504195823 51 328 8.0 20.0 0.00 0.00 0.00 47 1000.8
20260504195317 51 4 8.0 19.0 0.00 0.00 0.00 49 1000.8
20260504194811 51 314 10.0 20.0 0.00 0.00 0.00 47 1000.8
20260504194305 51 354 11.0 21.0 0.00 0.00 0.00 46 1000.8
20260504193759 51 328 9.0 21.0 0.00 0.00 0.00 48 1000.4
20260504193252 52 309 8.0 20.0 0.00 0.00 0.00 46 1000.6
20260504192747 52 338 10.0 19.0 0.00 0.00 0.00 47 1000.4
20260504192241 52 323 10.0 23.0 0.00 0.00 0.00 49 1000.2
20260504191737 52 344 8.0 23.0 0.00 0.00 0.00 47 1000.2
20260504191229 52 298 8.0 17.0 0.00 0.00 0.00 47 1000.1
20260504190723 52 30 10.0 25.0 0.00 0.00 0.00 48 999.9
20260504190448 52 326 12.0 27.0 0.00 0.00 0.00 50 999.8
20260504185711 52 309 11.0 27.0 0.00 0.00 0.00 48 999.8
20260504185204 52 349 7.0 24.0 0.00 0.00 0.00 46 999.5
20260504184658 52 332 6.0 19.0 0.00 0.00 0.00 47 999.6
20260504184424 52 346 9.0 25.0 0.00 0.00 0.00 48 999.6
20260504183647 52 333 11.0 25.0 0.00 0.00 0.00 51 999.6
20260504183412 52 342 9.0 24.0 0.00 0.00 0.00 50 999.5
20260504182635 53 313 7.0 19.0 0.00 0.00 0.00 48 999.5
20260504182129 53 307 10.0 22.0 0.00 0.00 0.00 47 999.3
20260504182124 52 308 10.0 22.0 0.00 0.00 0.00 53 999.3
20260504181117 52 330 10.0 27.0 0.00 0.00 0.00 51 999.3
20260504180841 53 338 10.0 27.0 0.00 0.00 0.00 49 999.4
20260504180105 53 349 7.0 17.0 0.00 0.00 0.00 49 999.1
20260504175559 54 8 5.0 14.0 0.00 0.00 0.00 49 999.0
20260504175053 54 279 7.0 22.0 0.00 0.00 0.00 51 999.2
20260504174547 53 317 8.0 22.0 0.00 0.00 0.00 49 999.0
20260504174040 53 305 7.0 19.0 0.00 0.00 0.00 51 998.9
20260504173535 53 302 7.0 24.0 0.00 0.00 0.00 51 998.9
20260504173029 53 334 9.0 28.0 0.00 0.00 0.00 51 998.9
20260504172522 53 345 10.0 29.0 0.00 0.00 0.00 50 998.7
20260504172017 53 300 9.0 29.0 0.00 0.00 0.00 49 998.6
20260504171511 54 319 7.0 21.0 0.00 0.00 0.00 49 998.5
20260504171005 55 15 5.0 21.0 0.00 0.00 0.00 47 998.6
20260504170459 54 300 6.0 14.0 0.00 0.00 0.00 50 998.3
20260504150826 55 1 6.0 18.0 0.00 0.00 0.00 57 996.7
20260504150325 54 323 5.0 18.0 0.00 0.00 0.00 57 996.7
20260504140304 53 216 4.0 13.0 0.00 0.00 0.00 57 996.2
20260504130217 54 319 5.0 16.0 0.00 0.00 0.00 55 995.3
20260504120218 54 304 3.0 9.0 0.00 0.00 0.00 63 994.3
20260504110718 59 269 3.0 11.0 0.00 0.00 0.00 46 992.9
20260504110215 59 216 3.0 9.0 0.00 0.00 0.00 46 992.8
20260504100211 58 239 2.0 8.0 0.00 0.00 0.00 41 992.7
20260504081139 58 359 3.0 9.0 0.00 0.00 0.00 40 994.2
20260504080639 58 210 2.0 9.0 0.00 0.00 0.00 40 994.3
20260504080133 58 129 2.0 10.0 0.00 0.00 0.00 41 994.5
20260504050536 57 237 1.0 6.0 0.00 0.01 0.00 44 998.5
20260504050024 57 217 1.0 6.0 0.00 0.01 0.01 44 998.7
20260504045900 57 111 1.0 4.0 0.00 0.01 0.01 45 998.6
20260504044745 57 101 1.0 5.0 0.00 0.01 0.01 44 998.8
20260504044510 57 214 1.0 5.0 0.00 0.01 0.01 43 999.0
20260504043738 57 219 1.0 5.0 0.00 0.01 0.01 44 999.1
20260504043505 57 234 1.0 6.0 0.00 0.01 0.01 44 999.2
20260504042735 57 127 1.0 6.0 0.00 0.01 0.01 43 999.2
20260504042235 57 90 1.0 5.0 0.00 0.01 0.01 44 999.3
20260504042004 57 113 1.0 5.0 0.00 0.01 0.01 44 999.5
20260504041233 57 308 1.0 4.0 0.00 0.01 0.01 44 999.6
20260504040733 57 143 1.0 4.0 0.00 0.01 0.01 44 999.8
20260504040232 57 33 1.0 4.0 0.00 0.01 0.01 43 999.9
20260504040003 57 240 1.0 4.0 0.00 0.01 0.01 43 1000.0
20260504035233 57 139 1.0 4.0 0.00 0.01 0.01 45 1000.1
20260504034735 57 213 1.0 5.0 0.00 0.01 0.01 43 1000.2
20260504034231 57 152 1.0 5.0 0.00 0.01 0.01 42 1000.3
20260504033731 56 200 1.0 4.0 0.00 0.01 0.01 43 1000.4
20260504033232 56 107 1.0 4.0 0.00 0.01 0.01 43 1000.6
20260504032730 56 226 1.0 4.0 0.00 0.01 0.01 44 1000.8
20260504032228 55 226 0.0 3.0 0.00 0.01 0.01 45 1000.9
20260504031728 55 130 0.0 5.0 0.00 0.01 0.01 46 1001.0
20260504031500 55 105 1.0 4.0 0.00 0.01 0.01 47 1001.2
20260504030722 55 136 0.0 3.0 0.00 0.01 0.01 47 1001.3
20260504030216 54 153 0.0 3.0 0.00 0.01 0.01 46 1001.4
20260504025706 53 210 0.0 1.0 0.00 0.01 0.01 49 1001.5
20260504025200 53 220 0.0 2.0 0.00 0.01 0.01 49 1001.5
20260504024655 53 120 0.0 2.0 0.00 0.01 0.01 50 1001.6
20260504024148 54 214 0.0 0.0 0.00 0.01 0.01 49 1001.7
20260504023642 54 158 0.0 0.0 0.00 0.01 0.01 47 1001.8
20260504023136 54 236 0.0 0.0 0.00 0.01 0.01 46 1001.9
20260504022630 54 236 0.0 0.0 0.00 0.01 0.01 46 1002.0
20260504022123 55 236 0.0 0.0 0.00 0.01 0.01 43 1002.1
20260504021618 55 236 0.0 0.0 0.00 0.01 0.01 42 1002.1
20260504021112 56 264 0.0 0.0 0.00 0.01 0.01 40 1002.2
20260504020606 56 264 0.0 0.0 0.00 0.01 0.01 39 1002.2
20260504020100 56 265 0.0 0.0 0.00 0.01 0.01 40 1002.3
20260504015554 57 264 0.0 0.0 0.00 0.01 0.01 38 1002.5
20260504015319 57 265 0.0 0.0 0.00 0.01 0.01 38 1002.4
20260504014547 58 265 0.0 0.0 0.00 0.01 0.01 37 1002.4